KB7KFC-3 Weather Reports


time (UTC)temp
C
wind
direction
speed
KPH
gust
KPH
rain 1hr
cm
rain 24hr
cm
rain mn
cm
humidity
%
barometer
mb
20260507142805 19 343 0.0 0.0 0.00 0.00 0.00 40 1014.9
20260507142505 19 343 0.0 1.6 0.00 0.00 0.00 42 1014.9
20260507142204 19 343 0.0 0.0 0.00 0.00 0.00 41 1014.9
20260507141904 18 238 0.0 1.6 0.00 0.00 0.00 42 1014.8
20260507141603 18 228 0.0 3.2 0.00 0.00 0.00 44 1014.8
20260507141306 18 161 0.0 0.0 0.00 0.00 0.00 49 1014.7
20260507141006 18 161 0.0 0.0 0.00 0.00 0.00 49 1014.8
20260507140704 17 142 0.0 0.0 0.00 0.00 0.00 55 1014.8
20260507140404 17 142 0.0 0.0 0.00 0.00 0.00 54 1014.8
20260507140104 17 142 0.0 0.0 0.00 0.00 0.00 52 1014.8
20260507135804 17 142 0.0 0.0 0.00 0.00 0.00 52 1014.8
20260507135505 17 142 0.0 0.0 0.00 0.00 0.00 49 1014.8
20260507135204 17 142 0.0 0.0 0.00 0.00 0.00 46 1014.8
20260507134904 16 142 0.0 0.0 0.00 0.00 0.00 45 1014.8
20260507134605 16 142 0.0 0.0 0.00 0.00 0.00 44 1014.7
20260507134304 16 142 0.0 0.0 0.00 0.00 0.00 44 1014.7
20260507134003 16 142 0.0 0.0 0.00 0.00 0.00 43 1014.7
20260507133704 16 142 0.0 0.0 0.00 0.00 0.00 47 1014.7
20260507133403 16 142 0.0 0.0 0.00 0.00 0.00 46 1014.6
20260507133104 16 142 0.0 1.6 0.00 0.00 0.00 48 1014.6
20260507132805 16 142 0.0 0.0 0.00 0.00 0.00 43 1014.5
20260507132504 16 142 0.0 0.0 0.00 0.00 0.00 43 1014.6
20260507132203 16 142 0.0 1.6 0.00 0.00 0.00 44 1014.5
20260507131906 16 142 0.0 1.6 0.00 0.00 0.00 43 1014.6
20260507131603 15 142 0.0 0.0 0.00 0.00 0.00 43 1014.4
20260507131305 15 142 0.0 0.0 0.00 0.00 0.00 43 1014.5
20260507131005 15 142 0.0 0.0 0.00 0.00 0.00 43 1014.5
20260507130705 15 142 0.0 0.0 0.00 0.00 0.00 44 1014.4
20260507130404 15 142 0.0 0.0 0.00 0.00 0.00 45 1014.4
20260507130104 15 142 0.0 0.0 0.00 0.00 0.00 43 1014.4
20260507125805 15 142 0.0 0.0 0.00 0.00 0.00 43 1014.4
20260507125505 16 142 0.0 0.0 0.00 0.00 0.00 43 1014.4
20260507125204 16 142 0.0 0.0 0.00 0.00 0.00 42 1014.4
20260507124904 16 144 0.0 1.6 0.00 0.00 0.00 41 1014.4
20260507124605 16 205 0.0 3.2 0.00 0.00 0.00 40 1014.3
20260507124303 16 248 0.0 1.6 0.00 0.00 0.00 40 1014.3
20260507124004 16 250 0.0 0.0 0.00 0.00 0.00 43 1014.3
20260507123703 16 250 0.0 1.6 0.00 0.00 0.00 41 1014.4
20260507123404 16 250 0.0 0.0 0.00 0.00 0.00 40 1014.4
20260507123104 16 250 0.0 1.6 0.00 0.00 0.00 40 1014.3
20260507122805 16 248 1.6 1.6 0.00 0.00 0.00 40 1014.3
20260507122504 16 248 0.0 1.6 0.00 0.00 0.00 42 1014.3
20260507122205 16 242 0.0 0.0 0.00 0.00 0.00 41 1014.3
20260507121904 16 242 0.0 1.6 0.00 0.00 0.00 40 1014.3
20260507121603 16 233 1.6 3.2 0.00 0.00 0.00 41 1014.3
20260507121305 16 240 1.6 1.6 0.00 0.00 0.00 43 1014.4
20260507121006 16 252 1.6 4.8 0.00 0.00 0.00 45 1014.4
20260507120704 16 248 1.6 3.2 0.00 0.00 0.00 47 1014.4
20260507120403 16 336 0.0 1.6 0.00 0.00 0.00 47 1014.3
20260507120104 16 9 0.0 0.0 0.00 0.00 0.00 49 1014.4
20260507115805 16 9 0.0 0.0 0.00 0.00 0.00 48 1014.4
20260507115504 16 9 0.0 0.0 0.00 0.00 0.00 47 1014.4
20260507115204 16 9 0.0 0.0 0.00 0.00 0.00 44 1014.4
20260507114903 16 9 0.0 0.0 0.00 0.00 0.00 44 1014.4
20260507114603 16 9 0.0 0.0 0.00 0.00 0.00 45 1014.4
20260507114305 16 9 0.0 0.0 0.00 0.00 0.00 47 1014.4
20260507114005 16 9 0.0 0.0 0.00 0.00 0.00 46 1014.3
20260507113704 16 9 0.0 0.0 0.00 0.00 0.00 45 1014.4
20260507113405 17 9 0.0 0.0 0.00 0.00 0.00 45 1014.4
20260507113104 17 9 0.0 0.0 0.00 0.00 0.00 45 1014.4
20260507112804 17 9 0.0 0.0 0.00 0.00 0.00 46 1014.5
20260507112504 17 9 0.0 0.0 0.00 0.00 0.00 42 1014.5
20260507112205 17 9 0.0 0.0 0.00 0.00 0.00 42 1014.5
20260507111906 17 9 0.0 0.0 0.00 0.00 0.00 43 1014.6
20260507111603 17 9 0.0 0.0 0.00 0.00 0.00 43 1014.5
20260507111304 17 9 0.0 0.0 0.00 0.00 0.00 44 1014.4
20260507111003 17 9 0.0 0.0 0.00 0.00 0.00 42 1014.4
20260507110703 17 9 0.0 0.0 0.00 0.00 0.00 46 1014.4
20260507110404 17 9 0.0 0.0 0.00 0.00 0.00 42 1014.4
20260507110104 17 9 0.0 0.0 0.00 0.00 0.00 41 1014.4
20260507105804 17 9 0.0 0.0 0.00 0.00 0.00 41 1014.4
20260507105504 17 9 0.0 0.0 0.00 0.00 0.00 41 1014.4
20260507105204 18 9 0.0 0.0 0.00 0.00 0.00 40 1014.4
20260507104904 18 9 0.0 0.0 0.00 0.00 0.00 39 1014.4
20260507104603 18 9 0.0 0.0 0.00 0.00 0.00 40 1014.5
20260507104304 18 9 0.0 0.0 0.00 0.00 0.00 39 1014.5
20260507104004 18 9 0.0 0.0 0.00 0.00 0.00 40 1014.5
20260507103704 18 9 0.0 0.0 0.00 0.00 0.00 40 1014.4
20260507103404 18 9 0.0 1.6 0.00 0.00 0.00 40 1014.4
20260507103104 18 9 0.0 0.0 0.00 0.00 0.00 40 1014.4
20260507102805 18 9 0.0 0.0 0.00 0.00 0.00 39 1014.5
20260507102504 18 9 0.0 0.0 0.00 0.00 0.00 39 1014.4
20260507102205 18 9 0.0 0.0 0.00 0.00 0.00 40 1014.4
20260507101905 18 9 0.0 0.0 0.00 0.00 0.00 39 1014.4
20260507101604 18 9 0.0 0.0 0.00 0.00 0.00 40 1014.4
20260507101304 18 9 0.0 0.0 0.00 0.00 0.00 41 1014.5
20260507101003 18 9 0.0 3.2 0.00 0.00 0.00 40 1014.6
20260507100703 18 9 0.0 1.6 0.00 0.00 0.00 38 1014.6
20260507100404 18 9 0.0 0.0 0.00 0.00 0.00 39 1014.7
20260507100105 18 9 0.0 0.0 0.00 0.00 0.00 38 1014.7
20260507095804 18 9 1.6 1.6 0.00 0.00 0.00 37 1014.8
20260507095503 18 348 1.6 3.2 0.00 0.00 0.00 38 1014.8
20260507095204 18 346 0.0 1.6 0.00 0.00 0.00 39 1014.8
20260507094905 18 346 0.0 1.6 0.00 0.00 0.00 41 1014.8
20260507094606 17 239 0.0 0.0 0.00 0.00 0.00 43 1014.8
20260507094304 17 240 0.0 0.0 0.00 0.00 0.00 44 1014.8
20260507094003 17 240 0.0 0.0 0.00 0.00 0.00 43 1014.8
20260507093703 17 237 0.0 0.0 0.00 0.00 0.00 45 1014.8
20260507093404 17 236 0.0 0.0 0.00 0.00 0.00 49 1014.8
20260507093104 17 236 0.0 0.0 0.00 0.00 0.00 49 1014.8
20260507092804 17 236 0.0 0.0 0.00 0.00 0.00 48 1014.8
20260507092503 17 236 0.0 0.0 0.00 0.00 0.00 47 1014.8
20260507092204 17 236 0.0 0.0 0.00 0.00 0.00 45 1014.8
20260507091904 17 236 0.0 0.0 0.00 0.00 0.00 44 1014.8
20260507091604 17 236 0.0 0.0 0.00 0.00 0.00 44 1014.9
20260507091304 17 236 0.0 0.0 0.00 0.00 0.00 45 1014.9
20260507091004 17 236 0.0 0.0 0.00 0.00 0.00 44 1014.9
20260507090704 17 236 0.0 0.0 0.00 0.00 0.00 43 1015.0
20260507090404 17 236 0.0 0.0 0.00 0.00 0.00 42 1015.0
20260507090105 17 236 0.0 0.0 0.00 0.00 0.00 43 1014.9
20260507085804 17 236 0.0 0.0 0.00 0.00 0.00 43 1015.0
20260507085505 18 236 0.0 0.0 0.00 0.00 0.00 45 1015.0
20260507085203 18 236 0.0 0.0 0.00 0.00 0.00 45 1015.0
20260507084904 18 236 0.0 0.0 0.00 0.00 0.00 45 1015.1
20260507084605 18 236 0.0 0.0 0.00 0.00 0.00 44 1015.0
20260507084303 18 236 0.0 0.0 0.00 0.00 0.00 44 1014.9
20260507084003 18 236 0.0 0.0 0.00 0.00 0.00 45 1015.0
20260507083703 18 236 0.0 0.0 0.00 0.00 0.00 44 1015.0
20260507083403 18 236 0.0 0.0 0.00 0.00 0.00 42 1015.0
20260507083104 18 236 0.0 0.0 0.00 0.00 0.00 44 1015.0
20260507082803 18 236 0.0 0.0 0.00 0.00 0.00 46 1015.0
20260507082504 18 236 0.0 0.0 0.00 0.00 0.00 48 1015.1
20260507082203 18 236 0.0 0.0 0.00 0.00 0.00 47 1015.1
20260507081904 18 236 0.0 0.0 0.00 0.00 0.00 47 1015.2
20260507081603 18 236 0.0 0.0 0.00 0.00 0.00 48 1015.2
20260507081304 18 236 0.0 0.0 0.00 0.00 0.00 47 1015.2
20260507081004 18 236 0.0 0.0 0.00 0.00 0.00 46 1015.1
20260507080704 18 236 0.0 0.0 0.00 0.00 0.00 44 1015.2
20260507080404 18 236 0.0 0.0 0.00 0.00 0.00 44 1015.3
20260507080103 18 236 0.0 0.0 0.00 0.00 0.00 42 1015.2
20260507075803 18 236 0.0 0.0 0.00 0.00 0.00 43 1015.2
20260507075504 18 236 0.0 0.0 0.00 0.00 0.00 44 1015.2
20260507075204 18 236 0.0 0.0 0.00 0.00 0.00 43 1015.2
20260507074904 18 236 0.0 0.0 0.00 0.00 0.00 43 1015.3
20260507074604 18 236 0.0 0.0 0.00 0.00 0.00 42 1015.3
20260507074303 18 236 0.0 0.0 0.00 0.00 0.00 43 1015.3
20260507074003 18 236 0.0 0.0 0.00 0.00 0.00 42 1015.3
20260507073704 18 236 0.0 0.0 0.00 0.00 0.00 43 1015.3
20260507073403 18 236 0.0 0.0 0.00 0.00 0.00 43 1015.3
20260507073104 18 236 0.0 0.0 0.00 0.00 0.00 44 1015.3
20260507072804 18 236 0.0 0.0 0.00 0.00 0.00 43 1015.3
20260507072503 18 236 0.0 0.0 0.00 0.00 0.00 42 1015.3
20260507072204 19 236 0.0 0.0 0.00 0.00 0.00 41 1015.4
20260507071904 18 236 0.0 0.0 0.00 0.00 0.00 42 1015.4
20260507071604 19 236 0.0 0.0 0.00 0.00 0.00 43 1015.4
20260507071303 19 236 0.0 0.0 0.00 0.00 0.00 44 1015.5
20260507071004 19 236 0.0 0.0 0.00 0.00 0.00 44 1015.4
20260507070703 19 236 0.0 0.0 0.00 0.00 0.00 44 1015.4
20260507070404 19 236 0.0 0.0 0.00 0.00 0.00 41 1015.4
20260507070103 19 236 0.0 0.0 0.00 0.00 0.00 41 1015.3
20260507065803 18 236 0.0 0.0 0.00 0.00 0.00 40 1015.3
20260507065503 19 236 0.0 0.0 0.00 0.00 0.00 40 1015.2
20260507065204 19 236 0.0 0.0 0.00 0.00 0.00 39 1015.3
20260507064904 19 236 0.0 0.0 0.00 0.00 0.00 38 1015.3
20260507064603 19 236 0.0 0.0 0.00 0.00 0.00 39 1015.3
20260507064303 19 236 0.0 0.0 0.00 0.00 0.00 40 1015.2
20260507064003 19 236 0.0 0.0 0.00 0.00 0.00 39 1015.2
20260507063705 19 236 0.0 0.0 0.00 0.00 0.00 40 1015.2
20260507063404 19 236 0.0 0.0 0.00 0.00 0.00 39 1015.3
20260507063104 20 236 0.0 0.0 0.00 0.00 0.00 39 1015.2
20260507062804 20 236 0.0 0.0 0.00 0.00 0.00 39 1015.2
20260507062503 20 236 0.0 0.0 0.00 0.00 0.00 38 1015.2
20260507062203 20 236 0.0 0.0 0.00 0.00 0.00 37 1015.2
20260507061904 20 236 0.0 0.0 0.00 0.00 0.00 36 1015.2
20260507061604 20 236 0.0 0.0 0.00 0.00 0.00 37 1015.2
20260507061302 20 236 0.0 0.0 0.00 0.00 0.00 38 1015.2
20260507061003 20 236 0.0 0.0 0.00 0.00 0.00 38 1015.2
20260507060704 20 236 0.0 0.0 0.00 0.00 0.00 37 1015.2
20260507060403 20 236 0.0 0.0 0.00 0.00 0.00 37 1015.2
20260507060104 20 236 0.0 1.6 0.00 0.00 0.00 37 1015.2
20260507055804 20 236 0.0 0.0 0.00 0.00 0.00 37 1015.2
20260507055503 20 236 0.0 0.0 0.00 0.00 0.00 39 1015.2
20260507055204 20 236 0.0 0.0 0.00 0.00 0.00 38 1015.2
20260507054903 20 236 0.0 0.0 0.00 0.00 0.00 37 1015.2
20260507054604 20 236 0.0 0.0 0.00 0.00 0.00 36 1015.2
20260507054303 20 236 0.0 0.0 0.00 0.00 0.00 37 1015.2
20260507054004 20 236 0.0 0.0 0.00 0.00 0.00 37 1015.3
20260507053704 20 236 0.0 0.0 0.00 0.00 0.00 36 1015.3
20260507053403 21 236 0.0 0.0 0.00 0.00 0.00 35 1015.3
20260507053104 21 236 0.0 0.0 0.00 0.00 0.00 36 1015.2
20260507052804 21 236 0.0 0.0 0.00 0.00 0.00 35 1015.2
20260507052504 21 236 0.0 0.0 0.00 0.00 0.00 35 1015.2
20260507052203 21 236 0.0 0.0 0.00 0.00 0.00 35 1015.2
20260507051903 21 236 0.0 0.0 0.00 0.00 0.00 35 1015.1
20260507051604 21 236 0.0 0.0 0.00 0.00 0.00 33 1015.1
20260507051303 21 236 0.0 0.0 0.00 0.00 0.00 33 1015.1
20260507051003 21 236 0.0 0.0 0.00 0.00 0.00 34 1015.1
20260507050704 21 236 0.0 0.0 0.00 0.00 0.00 34 1015.1
20260507050404 21 236 0.0 0.0 0.00 0.00 0.00 33 1015.1
20260507050104 21 236 0.0 0.0 0.00 0.00 0.00 34 1015.0
20260507045802 21 236 0.0 0.0 0.00 0.00 0.00 33 1015.0
20260507045502 21 236 0.0 0.0 0.00 0.00 0.00 31 1015.0
20260507045203 21 236 0.0 0.0 0.00 0.00 0.00 32 1015.0
20260507044904 22 236 0.0 0.0 0.00 0.00 0.00 31 1015.0
20260507044604 22 236 0.0 0.0 0.00 0.00 0.00 31 1015.0
20260507044303 22 236 0.0 0.0 0.00 0.00 0.00 31 1015.0
20260507044003 22 236 0.0 0.0 0.00 0.00 0.00 30 1015.0
20260507043703 22 236 0.0 0.0 0.00 0.00 0.00 28 1014.9
20260507043403 22 236 0.0 0.0 0.00 0.00 0.00 27 1014.9
20260507043104 22 236 0.0 0.0 0.00 0.00 0.00 28 1014.9
20260507042804 22 236 0.0 0.0 0.00 0.00 0.00 28 1014.9
20260507042503 22 236 0.0 0.0 0.00 0.00 0.00 28 1014.8
20260507042203 22 236 0.0 0.0 0.00 0.00 0.00 28 1014.8
20260507041904 22 236 0.0 0.0 0.00 0.00 0.00 29 1014.7
20260507041604 22 236 0.0 0.0 0.00 0.00 0.00 29 1014.7
20260507041304 22 236 0.0 0.0 0.00 0.00 0.00 28 1014.6
20260507041004 22 236 0.0 0.0 0.00 0.00 0.00 28 1014.7
20260507040704 22 236 0.0 0.0 0.00 0.00 0.00 29 1014.6
20260507040404 22 236 0.0 0.0 0.00 0.00 0.00 29 1014.6
20260507040104 22 236 0.0 0.0 0.00 0.00 0.00 30 1014.6
20260507035803 22 236 0.0 0.0 0.00 0.00 0.00 29 1014.5
20260507035503 23 236 0.0 0.0 0.00 0.00 0.00 27 1014.5
20260507035203 23 236 0.0 0.0 0.00 0.00 0.00 27 1014.5
20260507034902 23 236 0.0 0.0 0.00 0.00 0.00 26 1014.4
20260507034603 23 236 0.0 0.0 0.00 0.00 0.00 25 1014.4
20260507034303 23 236 0.0 0.0 0.00 0.00 0.00 27 1014.4
20260507034003 23 236 0.0 0.0 0.00 0.00 0.00 26 1014.4
20260507033704 23 236 0.0 0.0 0.00 0.00 0.00 26 1014.3
20260507033404 23 236 0.0 0.0 0.00 0.00 0.00 25 1014.2
20260507033104 23 236 0.0 0.0 0.00 0.00 0.00 24 1014.3
20260507032804 23 236 0.0 0.0 0.00 0.00 0.00 25 1014.2
20260507032503 23 236 0.0 0.0 0.00 0.00 0.00 24 1014.2
20260507032203 23 236 0.0 0.0 0.00 0.00 0.00 24 1014.2
20260507031904 24 236 0.0 0.0 0.00 0.00 0.00 25 1014.1
20260507031603 24 236 0.0 0.0 0.00 0.00 0.00 22 1014.1
20260507031304 24 236 0.0 0.0 0.00 0.00 0.00 25 1014.0
20260507031004 24 236 0.0 0.0 0.00 0.00 0.00 24 1014.0
20260507030704 24 236 0.0 0.0 0.00 0.00 0.00 23 1013.9
20260507030404 24 236 0.0 0.0 0.00 0.00 0.00 25 1014.0
20260507025803 25 236 0.0 0.0 0.00 0.00 0.00 23 1013.9
20260507025504 25 236 0.0 0.0 0.00 0.00 0.00 22 1013.8
20260507025203 25 236 0.0 1.6 0.00 0.00 0.00 22 1013.8
20260507024904 25 236 0.0 0.0 0.00 0.00 0.00 22 1013.8
20260507024603 25 236 0.0 0.0 0.00 0.00 0.00 21 1013.8
20260507024304 25 236 0.0 0.0 0.00 0.00 0.00 21 1013.7
20260507024004 25 236 0.0 0.0 0.00 0.00 0.00 21 1013.8
20260507023703 25 236 0.0 0.0 0.00 0.00 0.00 23 1013.7
20260507023403 26 236 0.0 0.0 0.00 0.00 0.00 20 1013.7
20260507023104 26 236 0.0 0.0 0.00 0.00 0.00 19 1013.7
20260507022803 26 235 0.0 1.6 0.00 0.00 0.00 19 1013.6
20260507022502 26 236 0.0 1.6 0.00 0.00 0.00 19 1013.6
20260507022203 26 238 1.6 1.6 0.00 0.00 0.00 18 1013.6
20260507021902 26 236 0.0 1.6 0.00 0.00 0.00 18 1013.5
20260507021602 26 230 1.6 4.8 0.00 0.00 0.00 18 1013.4
20260507021303 26 257 0.0 0.0 0.00 0.00 0.00 19 1013.4
20260507021003 26 257 0.0 0.0 0.00 0.00 0.00 17 1013.4
20260507020704 26 257 0.0 1.6 0.00 0.00 0.00 17 1013.4
20260507020404 26 259 1.6 3.2 0.00 0.00 0.00 18 1013.4
20260507020104 26 257 0.0 1.6 0.00 0.00 0.00 17 1013.4
20260507015803 27 257 0.0 1.6 0.00 0.00 0.00 18 1013.3
20260507015503 27 257 0.0 0.0 0.00 0.00 0.00 17 1013.4
20260507015202 27 257 1.6 3.2 0.00 0.00 0.00 17 1013.3
20260507014903 27 265 3.2 4.8 0.00 0.00 0.00 17 1013.3
20260507014604 27 234 1.6 4.8 0.00 0.00 0.00 16 1013.4
20260507014303 27 247 1.6 4.8 0.00 0.00 0.00 17 1013.3
20260507014002 27 267 3.2 4.8 0.00 0.00 0.00 16 1013.3
20260507013703 27 261 1.6 1.6 0.00 0.00 0.00 16 1013.3
20260507013403 27 250 3.2 4.8 0.00 0.00 0.00 16 1013.4
20260507013103 27 273 1.6 3.2 0.00 0.00 0.00 16 1013.3
20260507012804 27 229 3.2 4.8 0.00 0.00 0.00 16 1013.4
20260507012503 27 233 0.0 0.0 0.00 0.00 0.00 17 1013.4
20260507012204 27 239 1.6 3.2 0.00 0.00 0.00 16 1013.4
20260507011904 27 267 1.6 4.8 0.00 0.00 0.00 16 1013.4
20260507011604 27 187 1.6 3.2 0.00 0.00 0.00 16 1013.4
20260507011303 27 237 3.2 4.8 0.00 0.00 0.00 16 1013.4
20260507011002 27 252 4.8 4.8 0.00 0.00 0.00 16 1013.4
20260507010704 28 238 3.2 4.8 0.00 0.00 0.00 16 1013.3
20260507010404 28 257 1.6 3.2 0.00 0.00 0.00 16 1013.4
20260507010104 28 218 1.6 3.2 0.00 0.00 0.00 16 1013.4
20260507005803 28 209 0.0 3.2 0.00 0.00 0.00 16 1013.3
20260507005503 28 185 0.0 1.6 0.00 0.00 0.00 16 1013.4
20260507005203 28 207 0.0 3.2 0.00 0.00 0.00 16 1013.3
20260507004902 28 254 0.0 1.6 0.00 0.00 0.00 16 1013.4
20260507004602 28 237 1.6 1.6 0.00 0.00 0.00 16 1013.4
20260507004303 28 246 3.2 4.8 0.00 0.00 0.00 16 1013.3
20260507004003 28 228 1.6 8.0 0.00 0.00 0.00 16 1013.3
20260507003703 28 259 3.2 3.2 0.00 0.00 0.00 16 1013.3
20260507003404 28 51 1.6 1.6 0.00 0.00 0.00 16 1013.3
20260507003104 28 309 1.6 3.2 0.00 0.00 0.00 17 1013.3
20260507002803 28 260 3.2 4.8 0.00 0.00 0.00 16 1013.3
20260507002502 28 222 1.6 1.6 0.00 0.00 0.00 16 1013.3
20260507002203 28 289 0.0 1.6 0.00 0.00 0.00 17 1013.3
20260507001903 28 262 3.2 12.9 0.00 0.00 0.00 17 1013.2
20260507001603 28 192 3.2 3.2 0.00 0.00 0.00 16 1013.3
20260507001303 28 227 3.2 4.8 0.00 0.00 0.00 15 1013.2
20260507001002 28 256 1.6 3.2 0.00 0.00 0.00 16 1013.2
20260507000702 28 242 3.2 4.8 0.00 0.00 0.00 15 1013.3
20260507000405 28 246 1.6 4.8 0.00 0.00 0.00 17 1013.3
20260506235803 28 216 3.2 3.2 0.00 0.00 0.00 16 1013.4
20260506235504 28 133 0.0 3.2 0.00 0.00 0.00 18 1013.3
20260506235203 28 238 1.6 4.8 0.00 0.00 0.00 16 1013.3
20260506234904 28 241 1.6 4.8 0.00 0.00 0.00 17 1013.3
20260506234603 28 28 1.6 3.2 0.00 0.00 0.00 17 1013.4
20260506234303 28 275 3.2 3.2 0.00 0.00 0.00 17 1013.4
20260506234003 28 321 1.6 3.2 0.00 0.00 0.00 16 1013.4
20260506233703 28 123 1.6 4.8 0.00 0.00 0.00 16 1013.4
20260506233404 28 29 1.6 3.2 0.00 0.00 0.00 17 1013.4
20260506233104 28 23 1.6 3.2 0.00 0.00 0.00 18 1013.5
20260506232803 28 303 1.6 4.8 0.00 0.00 0.00 17 1013.5
20260506232502 28 270 1.6 3.2 0.00 0.00 0.00 17 1013.5
20260506232203 28 8 3.2 3.2 0.00 0.00 0.00 17 1013.5
20260506231903 28 268 1.6 4.8 0.00 0.00 0.00 15 1013.6
20260506231602 28 31 1.6 3.2 0.00 0.00 0.00 16 1013.6
20260506231304 28 310 1.6 4.8 0.00 0.00 0.00 18 1013.7
20260506231004 28 295 1.6 3.2 0.00 0.00 0.00 18 1013.7
20260506230703 28 46 0.0 3.2 0.00 0.00 0.00 18 1013.7
20260506230402 28 236 1.6 3.2 0.00 0.00 0.00 18 1013.8
20260506225802 28 50 3.2 3.2 0.00 0.00 0.00 17 1014.0
20260506225503 27 328 0.0 0.0 0.00 0.00 0.00 18 1014.0
20260506225203 28 308 0.0 0.0 0.00 0.00 0.00 16 1014.0
20260506224902 28 295 3.2 4.8 0.00 0.00 0.00 19 1014.1
20260506224603 28 33 3.2 4.8 0.00 0.00 0.00 18 1014.0
20260506224303 28 104 1.6 4.8 0.00 0.00 0.00 18 1014.1
20260506224003 28 19 0.0 1.6 0.00 0.00 0.00 18 1014.2
20260506223703 28 283 3.2 9.7 0.00 0.00 0.00 18 1014.2
20260506223403 28 3 4.8 9.7 0.00 0.00 0.00 18 1014.2
20260506223103 28 270 1.6 4.8 0.00 0.00 0.00 16 1014.3
20260506222803 28 49 1.6 3.2 0.00 0.00 0.00 20 1014.3
20260506222503 28 276 1.6 4.8 0.00 0.00 0.00 18 1014.2
20260506222204 27 243 1.6 11.3 0.00 0.00 0.00 18 1014.3
20260506221904 27 243 1.6 3.2 0.00 0.00 0.00 16 1014.3
20260506221603 28 224 3.2 3.2 0.00 0.00 0.00 17 1014.4
20260506221303 28 238 1.6 4.8 0.00 0.00 0.00 18 1014.4
20260506221002 28 292 1.6 4.8 0.00 0.00 0.00 19 1014.5
20260506220702 28 269 1.6 3.2 0.00 0.00 0.00 20 1014.5
20260506220403 27 252 3.2 16.1 0.00 0.00 0.00 18 1014.4
20260506215802 28 320 0.0 3.2 0.00 0.00 0.00 19 1014.7
20260506215502 27 269 1.6 4.8 0.00 0.00 0.00 18 1014.7
20260506215203 27 26 0.0 1.6 0.00 0.00 0.00 17 1014.7
20260506214902 27 179 3.2 4.8 0.00 0.00 0.00 18 1014.7
20260506214603 27 251 3.2 4.8 0.00 0.00 0.00 19 1014.8
20260506214303 27 249 1.6 3.2 0.00 0.00 0.00 18 1015.0
20260506214005 27 242 3.2 4.8 0.00 0.00 0.00 18 1015.0
20260506213703 27 203 1.6 4.8 0.00 0.00 0.00 18 1015.1
20260506213403 28 42 3.2 4.8 0.00 0.00 0.00 18 1015.1
20260506213103 28 263 1.6 3.2 0.00 0.00 0.00 20 1015.1
20260506212804 27 329 1.6 4.8 0.00 0.00 0.00 20 1015.1
20260506212505 27 14 1.6 8.0 0.00 0.00 0.00 20 1015.2
20260506212204 27 248 3.2 4.8 0.00 0.00 0.00 19 1015.3
20260506211905 27 252 1.6 3.2 0.00 0.00 0.00 21 1015.3
20260506211604 28 276 1.6 4.8 0.00 0.00 0.00 21 1015.3
20260506211305 27 193 1.6 3.2 0.00 0.00 0.00 19 1015.3
20260506211005 27 226 0.0 3.2 0.00 0.00 0.00 21 1015.3
20260506210704 27 281 0.0 1.6 0.00 0.00 0.00 19 1015.4
20260506210405 27 255 4.8 8.0 0.00 0.00 0.00 19 1015.4
20260506210104 27 170 1.6 3.2 0.00 0.00 0.00 19 1015.5
20260506205806 27 95 1.6 4.8 0.00 0.00 0.00 20 1015.5
20260506205505 27 2 4.8 4.8 0.00 0.00 0.00 20 1015.6
20260506205205 27 354 1.6 3.2 0.00 0.00 0.00 25 1015.7
20260506204905 27 251 4.8 9.7 0.00 0.00 0.00 19 1015.6
20260506204604 27 261 3.2 12.9 0.00 0.00 0.00 20 1015.6
20260506204305 27 4 0.0 1.6 0.00 0.00 0.00 22 1015.6
20260506204004 27 265 3.2 4.8 0.00 0.00 0.00 20 1015.7
20260506203705 26 53 1.6 1.6 0.00 0.00 0.00 20 1015.7
20260506203404 27 286 0.0 4.8 0.00 0.00 0.00 20 1015.9
20260506203104 27 230 3.2 4.8 0.00 0.00 0.00 20 1015.9
20260506202805 27 278 3.2 9.7 0.00 0.00 0.00 20 1016.0
20260506202506 27 240 1.6 3.2 0.00 0.00 0.00 21 1016.0
20260506202204 27 354 0.0 4.8 0.00 0.00 0.00 22 1015.9
20260506201905 26 7 1.6 4.8 0.00 0.00 0.00 21 1016.0
20260506201605 26 54 1.6 4.8 0.00 0.00 0.00 21 1016.1
20260506201304 27 349 3.2 4.8 0.00 0.00 0.00 21 1016.1
20260506201004 27 13 1.6 3.2 0.00 0.00 0.00 21 1016.1
20260506200704 26 333 0.0 1.6 0.00 0.00 0.00 23 1016.1
20260506200405 26 125 3.2 4.8 0.00 0.00 0.00 20 1016.1
20260506200105 26 148 1.6 3.2 0.00 0.00 0.00 22 1016.2
20260506195805 26 170 1.6 3.2 0.00 0.00 0.00 21 1016.1
20260506195505 26 218 1.6 3.2 0.00 0.00 0.00 20 1016.2
20260506195204 27 41 4.8 9.7 0.00 0.00 0.00 20 1016.3
20260506194904 27 88 1.6 3.2 0.00 0.00 0.00 22 1016.3
20260506194604 27 297 1.6 4.8 0.00 0.00 0.00 23 1016.3
20260506194304 26 253 1.6 4.8 0.00 0.00 0.00 21 1016.3
20260506194005 26 45 3.2 4.8 0.00 0.00 0.00 21 1016.4
20260506193704 27 36 1.6 4.8 0.00 0.00 0.00 24 1016.4
20260506193405 26 332 3.2 4.8 0.00 0.00 0.00 23 1016.4
20260506193104 26 341 3.2 4.8 0.00 0.00 0.00 21 1016.5
20260506192804 26 71 1.6 1.6 0.00 0.00 0.00 21 1016.5
20260506192505 26 294 1.6 3.2 0.00 0.00 0.00 22 1016.5
20260506192204 26 269 1.6 4.8 0.00 0.00 0.00 21 1016.6
20260506191904 26 228 1.6 4.8 0.00 0.00 0.00 21 1016.6
20260506191605 26 262 4.8 11.3 0.00 0.00 0.00 20 1016.7
20260506191305 26 242 1.6 4.8 0.00 0.00 0.00 22 1016.7
20260506191004 26 324 1.6 4.8 0.00 0.00 0.00 22 1016.8
20260506190705 26 244 4.8 4.8 0.00 0.00 0.00 21 1016.8
20260506190405 26 292 1.6 3.2 0.00 0.00 0.00 22 1016.8
20260506190104 26 144 3.2 4.8 0.00 0.00 0.00 21 1016.8
20260506185804 26 31 0.0 3.2 0.00 0.00 0.00 24 1017.0
20260506185505 26 221 1.6 8.0 0.00 0.00 0.00 28 1017.0
20260506185204 26 285 4.8 4.8 0.00 0.00 0.00 25 1017.0
20260506184904 25 277 0.0 0.0 0.00 0.00 0.00 23 1017.1
20260506184605 26 284 1.6 3.2 0.00 0.00 0.00 23 1017.1
20260506184304 25 351 1.6 4.8 0.00 0.00 0.00 27 1017.1
20260506184004 25 202 1.6 3.2 0.00 0.00 0.00 24 1017.2
20260506183704 25 217 1.6 3.2 0.00 0.00 0.00 20 1017.2
20260506183404 25 17 3.2 4.8 0.00 0.00 0.00 22 1017.3
20260506183105 25 40 1.6 3.2 0.00 0.00 0.00 22 1017.4
20260506182805 26 341 3.2 4.8 0.00 0.00 0.00 22 1017.4
20260506182504 25 317 1.6 3.2 0.00 0.00 0.00 24 1017.4
20260506182205 25 323 1.6 4.8 0.00 0.00 0.00 24 1017.4
20260506181905 25 4 1.6 8.0 0.00 0.00 0.00 30 1017.5
20260506181604 25 359 1.6 3.2 0.00 0.00 0.00 25 1017.5
20260506181305 25 175 1.6 3.2 0.00 0.00 0.00 25 1017.5
20260506181005 25 354 1.6 4.8 0.00 0.00 0.00 28 1017.5
20260506180705 25 353 3.2 8.0 0.00 0.00 0.00 28 1017.5
20260506180405 24 73 1.6 1.6 0.00 0.00 0.00 27 1017.5
20260506180105 23 156 0.0 3.2 0.00 0.00 0.00 26 1017.5
20260506175804 24 31 1.6 4.8 0.00 0.00 0.00 27 1017.6
20260506175505 24 11 3.2 4.8 0.00 0.00 0.00 28 1017.5
20260506175205 24 9 3.2 8.0 0.00 0.00 0.00 29 1017.6
20260506174904 23 287 1.6 1.6 0.00 0.00 0.00 27 1017.6
20260506174604 23 252 3.2 4.8 0.00 0.00 0.00 26 1017.6
20260506174304 24 249 3.2 4.8 0.00 0.00 0.00 26 1017.6
20260506174004 24 264 1.6 4.8 0.00 0.00 0.00 27 1017.6
20260506173704 23 270 4.8 8.0 0.00 0.00 0.00 26 1017.6
20260506173405 23 238 1.6 4.8 0.00 0.00 0.00 28 1017.6
20260506173104 23 249 3.2 4.8 0.00 0.00 0.00 26 1017.5
20260506172805 23 242 1.6 4.8 0.00 0.00 0.00 28 1017.5
20260506172504 23 199 1.6 1.6 0.00 0.00 0.00 28 1017.6
20260506172204 23 241 1.6 4.8 0.00 0.00 0.00 28 1017.5
20260506171905 23 175 1.6 1.6 0.00 0.00 0.00 28 1017.5
20260506171604 23 244 1.6 9.7 0.00 0.00 0.00 29 1017.5
20260506171304 23 331 1.6 1.6 0.00 0.00 0.00 29 1017.4
20260506171004 23 187 1.6 3.2 0.00 0.00 0.00 29 1017.5
20260506170704 22 215 0.0 3.2 0.00 0.00 0.00 28 1017.5
20260506170404 22 169 1.6 3.2 0.00 0.00 0.00 28 1017.5
20260506170104 22 148 1.6 3.2 0.00 0.00 0.00 29 1017.5
20260506165805 22 223 1.6 4.8 0.00 0.00 0.00 30 1017.5
20260506165505 22 160 1.6 3.2 0.00 0.00 0.00 29 1017.6
20260506165204 22 229 3.2 4.8 0.00 0.00 0.00 29 1017.6
20260506164904 22 150 1.6 4.8 0.00 0.00 0.00 29 1017.6
20260506164605 22 263 3.2 4.8 0.00 0.00 0.00 29 1017.6
20260506164305 22 356 0.0 3.2 0.00 0.00 0.00 33 1017.6
20260506164004 22 205 0.0 1.6 0.00 0.00 0.00 30 1017.5
20260506163705 22 279 0.0 0.0 0.00 0.00 0.00 30 1017.4
20260506163405 21 94 0.0 3.2 0.00 0.00 0.00 30 1017.5
20260506163104 21 95 1.6 1.6 0.00 0.00 0.00 29 1017.5
20260506162805 22 14 3.2 4.8 0.00 0.00 0.00 32 1017.5
20260506162504 21 282 1.6 3.2 0.00 0.00 0.00 31 1017.4
20260506162205 21 236 1.6 3.2 0.00 0.00 0.00 30 1017.5
20260506161905 21 75 0.0 0.0 0.00 0.00 0.00 31 1017.5
20260506161604 21 8 0.0 3.2 0.00 0.00 0.00 31 1017.5
20260506161305 21 162 0.0 3.2 0.00 0.00 0.00 31 1017.5
20260506161004 21 326 1.6 1.6 0.00 0.00 0.00 31 1017.6
20260506160704 21 15 0.0 3.2 0.00 0.00 0.00 31 1017.6
20260506160403 21 19 0.0 3.2 0.00 0.00 0.00 33 1017.6
20260506160103 21 25 0.0 0.0 0.00 0.00 0.00 35 1017.6
20260506155805 20 83 0.0 1.6 0.00 0.00 0.00 34 1017.7
20260506155505 20 350 0.0 3.2 0.00 0.00 0.00 34 1017.6
20260506155204 20 355 1.6 3.2 0.00 0.00 0.00 35 1017.6
20260506154905 20 15 0.0 1.6 0.00 0.00 0.00 36 1017.6
20260506154604 20 52 1.6 3.2 0.00 0.00 0.00 34 1017.7
20260506154304 20 122 0.0 1.6 0.00 0.00 0.00 34 1017.7
20260506154005 20 111 1.6 1.6 0.00 0.00 0.00 35 1017.7
20260506153704 19 103 1.6 3.2 0.00 0.00 0.00 35 1017.7
20260506153405 19 19 0.0 0.0 0.00 0.00 0.00 35 1017.6
20260506153105 19 14 0.0 1.6 0.00 0.00 0.00 37 1017.6
20260506152805 19 15 0.0 0.0 0.00 0.00 0.00 38 1017.6
20260506152505 19 14 0.0 1.6 0.00 0.00 0.00 36 1017.6
20260506152203 18 100 1.6 3.2 0.00 0.00 0.00 37 1017.6
20260506151904 18 271 0.0 0.0 0.00 0.00 0.00 35 1017.6
20260506151604 18 277 0.0 0.0 0.00 0.00 0.00 38 1017.6
20260506151304 18 277 0.0 0.0 0.00 0.00 0.00 38 1017.6
20260506151005 18 177 0.0 3.2 0.00 0.00 0.00 37 1017.6
20260506150705 18 146 0.0 3.2 0.00 0.00 0.00 37 1017.6
20260506150405 18 136 0.0 1.6 0.00 0.00 0.00 38 1017.5
20260506150104 17 148 0.0 1.6 0.00 0.00 0.00 39 1017.5
20260506145805 17 132 1.6 4.8 0.00 0.00 0.00 39 1017.5
20260506145505 17 262 0.0 4.8 0.00 0.00 0.00 39 1017.5
20260506145204 17 273 0.0 0.0 0.00 0.00 0.00 41 1017.5
20260506144904 17 265 1.6 1.6 0.00 0.00 0.00 41 1017.5
20260506144605 17 239 0.0 1.6 0.00 0.00 0.00 40 1017.5
20260506144303 16 169 1.6 1.6 0.00 0.00 0.00 41 1017.4
20260506144003 16 152 0.0 1.6 0.00 0.00 0.00 42 1017.4
20260506143703 16 151 0.0 1.6 0.00 0.00 0.00 42 1017.4
20260506143404 16 196 0.0 3.2 0.00 0.00 0.00 42 1017.4
20260506143103 16 173 1.6 4.8 0.00 0.00 0.00 43 1017.4